カタログに戻る

CZ-6A DEB

運用中PO
NORAD 60860·DEBRIS·🇨🇳 China

打ち上げ Aug 6, 2024 から Taiyuan Satellite Launch Center

Loading…

次のパス (今後24時間)

TLE

最新Source: Space-Track

元期: Sep 14, 2026, 11:09 UTC

1 60860U 24140JP  26257.46468434  .00000183  00000-0  86906-4 0  9997
2 60860  89.0431 269.6821 0065000 270.8719  88.5020 14.14526233107435

AllMySatでCZ-6A DEBをリアルタイム追跡

Download on the App Store